User: anonymous   Login
Location: Unspecified
(0.0000°N, 0.0000°E)
Time: 03:51:04
(UTC+02:00)
Language:

IUS-9 SRM-1 - Orbit

View from above orbital plane
View from above orbital plane
View from above satellite
View from above satellite

Ground track
Ground track

The orbit data is extracted from the following two-line orbital elements,

1 19884U 89021C   15243.00359574  .00004233  00000-0  53711-3 0  9990
2 19884 026.4499 152.8706 6018331 172.1634 033.3263 04.03641916307140
Epoch (UTC): 31 August 2015 00:05:10
Eccentricity: 0.6018331
inclination: 26.4499°
perigee height: 256 km
apogee height: 20312 km
right ascension of ascending node: 152.8706°
argument of perigee: 172.1634°
revolutions per day: 4.03641916
mean anomaly at epoch: 33.3263°
orbit number at epoch: 30714

The dashed part of the orbit path shows where the satellite is in the earth's shadow,  

DLR